Home > Weather > Hoyerswerda > Past weeks

Flag for Germany Past Weather in Hoyerswerda, Saxony, Germany — Yesterday and Last 2 Weeks

Now
68 °F

Sunny.


Feels Like: 68 °F
Forecast: 58 / 80 °F
Wind: 7 mph from Southwest

Location: Dresden-Klotzsche

Current Time: Jul 1, 2016 at 8:13:21 AM

Latest Report: Jul 1, 2016 at 7:50 AM


Visibility: 10 mi

Pressure: 30.04 "Hg

Humidity: 73%

Dew Point: 59 °F

Location of HoyerswerdaLocation

Past Weather in Hoyerswerda — Graph

°F

Hoyerswerda Temperature Yesterday

Maximum temperature yesterday: 75 °F (at 4:50 PM)
Minimum temperature yesterday: 59 °F (at 4:20 AM)
Average temperature yesterday: 67 °F

High & Low Weather Summary for the Past Weeks

 TemperatureHumidityPressure
High91 °F (Jun 24, 4:50 PM)100% (Jun 16, 11:50 PM)30.27 "Hg (Jun 16, 11:50 PM)
Low52 °F (Jun 19, 5:20 AM)29% (Jun 24, 2:20 PM)29.50 "Hg (Jun 17, 3:50 AM)
Average67 °F72%30.01 "Hg
* Reported Jun 16 6:20 AM — Jul 1 6:50 AM, Hoyerswerda, Weather by CustomWeather, © 2016

Note: Actual official high and low records may vary slightly from our data, if they occured in-between our weather recording intervals... More about our weather records

Advertising

Hoyerswerda Weather History for the Previous 24 Hours

Scroll right to see more
 ConditionsComfort  
Time TempWeatherWind HumidityBarometerVisibility
6:50 AM
Fri, Jul 1
66 °FSunny.8 mph78%30.01 "Hg10 mi
6:20 AM63 °FSunny.6 mph88%30.01 "Hg10 mi
5:50 AM63 °FClear.6 mph88%30.01 "Hg10 mi
5:20 AM61 °FPassing clouds.7 mph94%30.01 "HgN/A
4:50 AM63 °FPassing clouds.7 mph88%30.01 "HgN/A
4:20 AM63 °FPassing clouds.8 mph94%29.98 "HgN/A
3:50 AM61 °FClear.7 mph94%29.98 "Hg10 mi
3:20 AM61 °FClear.7 mph100%29.98 "Hg10 mi
2:50 AM61 °FClear.5 mph100%29.98 "Hg10 mi
2:20 AM63 °FPassing clouds.6 mph94%29.98 "HgN/A
1:50 AM63 °FPassing clouds.3 mph94%29.98 "HgN/A
1:20 AM61 °FPassing clouds.3 mph94%29.98 "HgN/A
12:50 AM63 °FPassing clouds.3 mph94%29.98 "HgN/A
12:20 AM63 °FClear.2 mph88%29.98 "Hg10 mi
11:50 PM
Thu, Jun 30
64 °FClear.7 mph88%30.01 "Hg10 mi
11:20 PM64 °FClear.6 mph88%29.98 "Hg10 mi
10:50 PM64 °FClear.5 mph88%30.01 "Hg10 mi
10:20 PM66 °FSunny.3 mph83%30.01 "Hg10 mi
9:50 PM66 °FPassing clouds.2 mph83%29.98 "HgN/A
9:20 PM68 °FPassing clouds.3 mph78%29.98 "HgN/A
8:50 PM68 °FScattered clouds.2 mph78%29.98 "HgN/A
8:20 PM70 °FScattered clouds.3 mph73%29.98 "HgN/A
7:50 PM68 °FPassing clouds.2 mph78%29.98 "HgN/A
7:20 PM68 °FScattered clouds.6 mph83%29.98 "HgN/A
6:50 PM66 °FScattered showers. Broken clouds.12 mph83%29.95 "HgN/A
6:20 PM73 °FScattered clouds.3 mph57%29.95 "HgN/A
5:50 PM75 °FScattered clouds.3 mph57%29.95 "HgN/A
5:20 PM75 °FScattered clouds.3 mph50%29.95 "HgN/A
4:50 PM75 °FScattered clouds.6 mph54%29.95 "HgN/A
4:20 PM73 °FPartly sunny.5 mph57%29.95 "HgN/A
3:50 PM73 °FPartly sunny.6 mph57%29.95 "HgN/A
3:20 PM72 °FPartly sunny.5 mph57%29.98 "HgN/A
2:50 PM72 °FLight rain. Broken clouds.2 mph61%29.98 "HgN/A
2:20 PM72 °FPartly sunny.5 mph61%29.98 "HgN/A
1:50 PM72 °FBroken clouds.5 mph61%29.98 "HgN/A
1:20 PM72 °FBroken clouds.3 mph57%29.98 "HgN/A
12:50 PM72 °FPartly sunny.6 mph53%29.98 "HgN/A
12:20 PM72 °FPartly sunny.7 mph53%29.98 "HgN/A
11:50 AM72 °FPartly sunny.8 mph57%29.98 "HgN/A
11:20 AM73 °FBroken clouds.8 mph57%29.98 "HgN/A
10:50 AM72 °FBroken clouds.7 mph61%29.95 "HgN/A
10:20 AM70 °FPassing clouds.3 mph69%29.95 "HgN/A
9:50 AM68 °FPassing clouds.8 mph73%29.95 "HgN/A
9:20 AM68 °FSunny.7 mph73%29.95 "Hg10 mi
8:50 AM66 °FSunny.8 mph73%29.95 "Hg10 mi
8:20 AM66 °FSunny.7 mph73%29.92 "Hg10 mi
Weather by CustomWeather, © 2016

See weather overviewHow to use our weather pages